Sandberg, CA

5:22 PM PST on December 16, 2017 (GMT -0800)
Sandberg

Weather History for KSDB - March, 2012

Change the Weather History Date:

Tuesday, March 6, 2012

  Actual Average Record
Temperature  
Mean Temperature 41 °F 46 °F  
Max Temperature 53 °F 53 °F 73 °F (1972)
Min Temperature 29 °F 39 °F 19 °F (1956)
Degree Days  
Heating Degree Days 24 19  
Month to date heating degree days 107 118  
Since 1 July heating degree days 2665 2877  
Cooling Degree Days 0 0  
Month to date cooling degree days 0 0  
Year to date cooling degree days 0 0  
Moisture  
Dew Point 25 °F    
Average Humidity 52    
Maximum Humidity 70    
Minimum Humidity 34    
Precipitation  
Precipitation 0.00 in 0.08 in 1.58 in (1975)
Month to date precipitation T 0.47  
Year to date precipitation 0.80 6.12  
Since 1 July precipitation 3.30  
Sea Level Pressure  
Sea Level Pressure 29.79 in    
Wind  
Wind Speed 21 mph (NNW)    
Max Wind Speed 40 mph    
Max Gust Speed 49 mph    
Visibility 10 miles    
Events      
T = Trace of Precipitation, MM = Missing Value Source: NWS Daily Summary

Daily Weather History Graph

Daily Weather History Graph

Search for Another Location

Airport or City:

Trip Planner

Search our weather history database for the weather conditions in past years. The results will help you decide how hot, cold, wet, or windy it might be!

Date:

Astronomy

Mar. 06, 2012 Rise Set
Actual Time 6:16 AM PST 5:55 PM PST
Civil Twilight 5:51 AM PST 6:20 PM PST
Nautical Twilight 5:22 AM PST 6:50 PM PST
Astronomical Twilight 4:53 AM PST 7:19 PM PST
Moon 4:29 PM PST (3/6) 4:52 AM PST (3/6)
Length of Visible Light 12h 29m
Length of Day
11h 38m
Waxing Gibbous, 97% of the Moon is Illuminated
Mar 6
Waxing Gibbous
Mar 8
Full
Mar 14
Last Quarter
Mar 22
New
Mar 30
First Quarter

Hourly Weather History & Observations

Time (PST) Temp. Windchill Dew Point Humidity Pressure Visibility Wind Dir Wind Speed Gust Speed Precip Events Conditions
12:48 AM 51.1 °F - 28.0 °F 41% 29.88 in 10.0 mi WNW 13.8 mph - N/A   Clear
1:48 AM 50.0 °F - 32.0 °F 50% 29.86 in 10.0 mi NNW 20.7 mph - N/A   Clear
2:48 AM 48.0 °F - 32.0 °F 54% 29.83 in 10.0 mi NW 15.0 mph - N/A   Clear
3:48 AM 46.9 °F - 33.1 °F 59% 29.82 in 10.0 mi NNW 15.0 mph - N/A   Clear
4:48 AM 46.0 °F 39.6 °F 35.1 °F 66% 29.81 in 10.0 mi NW 15.0 mph - N/A   Clear
5:48 AM 46.0 °F 41.9 °F 33.1 °F 61% 29.82 in 10.0 mi NW 8.1 mph - N/A   Clear
6:48 AM 43.0 °F 38.2 °F 33.1 °F 68% 29.80 in 10.0 mi SSW 8.1 mph - N/A   Clear
7:48 AM 48.0 °F - 21.9 °F 36% 29.81 in 10.0 mi NNW 13.8 mph - N/A   Clear
8:01 AM 46.4 °F 39.0 °F 21.2 °F 37% 29.90 in 10.0 mi NNW 19.6 mph 27.6 mph N/A   Clear
8:48 AM 48.0 °F - 24.1 °F 39% 29.79 in 10.0 mi NW 15.0 mph - N/A   Clear
9:48 AM 46.0 °F 38.8 °F 27.0 °F 47% 29.79 in 10.0 mi NW 18.4 mph - N/A   Clear
9:52 AM - - - N/A% - 0.7 mi North - - N/A   Unknown
10:48 AM 50.0 °F - 28.0 °F 43% 29.76 in 10.0 mi NW 15.0 mph - N/A   Clear
11:48 AM 46.0 °F 39.3 °F 32.0 °F 58% 29.76 in 10.0 mi NW 16.1 mph 24.2 mph N/A   Clear
12:48 PM 46.9 °F - 34.0 °F 61% 29.73 in 10.0 mi NNW 21.9 mph 31.1 mph N/A   Clear
1:35 PM 42.8 °F 32.1 °F 35.6 °F 76% 29.80 in 9.0 mi NNW 31.1 mph 43.7 mph N/A   Mostly Cloudy
1:48 PM 42.1 °F 30.6 °F 32.0 °F 67% 29.73 in 10.0 mi NNW 34.5 mph 46.0 mph N/A   Overcast
2:03 PM 39.2 °F 28.3 °F 32.0 °F 75% 29.81 in 10.0 mi NNW 25.3 mph 40.3 mph N/A   Overcast
2:10 PM 37.4 °F 25.4 °F 30.2 °F 75% 29.81 in 10.0 mi NNW 27.6 mph 34.5 mph N/A   Overcast
2:28 PM 37.4 °F 27.5 °F 26.6 °F 65% 29.81 in 10.0 mi NNW 18.4 mph 31.1 mph N/A   Overcast
2:48 PM 39.9 °F 29.2 °F 21.9 °F 49% 29.75 in 10.0 mi NNW 25.3 mph 34.5 mph N/A   Overcast
3:48 PM 39.0 °F 26.8 °F 21.0 °F 49% 29.71 in 10.0 mi NNW 32.2 mph 43.7 mph N/A   Partly Cloudy
4:48 PM 36.0 °F 23.9 °F 19.9 °F 52% 29.74 in 10.0 mi NNW 25.3 mph 33.4 mph N/A   Partly Cloudy
5:48 PM 33.1 °F 21.5 °F 18.0 °F 54% 29.75 in 10.0 mi NNW 19.6 mph 31.1 mph N/A   Scattered Clouds
6:48 PM 32.0 °F 19.2 °F 17.1 °F 54% 29.77 in 10.0 mi NNW 23.0 mph 36.8 mph N/A   Overcast
7:48 PM 30.9 °F 15.7 °F 17.1 °F 57% 29.77 in 10.0 mi NNW 32.2 mph 41.4 mph N/A   Scattered Clouds
8:48 PM 30.0 °F 14.9 °F 12.9 °F 49% 29.78 in 10.0 mi NNW 29.9 mph 42.6 mph N/A   Clear
9:48 PM 30.0 °F 14.7 °F 12.0 °F 47% 29.78 in 10.0 mi NNW 31.1 mph 40.3 mph N/A   Clear
10:48 PM 28.9 °F 13.0 °F 9.0 °F 43% 29.78 in 10.0 mi NNW 32.2 mph 40.3 mph N/A   Scattered Clouds
11:48 PM 30.0 °F 15.2 °F 8.1 °F 40% 29.78 in 10.0 mi North 28.8 mph 43.7 mph N/A   Mostly Cloudy